Meteo Giornale » Osservazioni meteo Italia » Catania-Fontanarossa

ore: 17:20 - Osservazioni Meteo Catania-Fontanarossa
Lat. 37° 28' N Lon. 15° 3' E Alt. 11 metri s.l.m.

nuvoloso Europe/Rome

28 °C

Nuvoloso

Temp. 24 Ore

19 °C

30 °C

Est

20.3 Km/h

Dew point 19 °C

Umidità 58 %

Visibilità  10 Km

Il sole sorge alle ore 06:15

Il sole tramonta alle ore 19:52

Data e Ora Cielo e Fenomeni T °C DP °C Um. % Pres. hPa Vis. km Vento km/h
Oggi h: 17:20 nuvoloso Nuvoloso 28 19 58 1011 10 E 20.3
Oggi h: 16:50 poco_nuvoloso Poco Nuvoloso 29 18 51 1011 10 E 22.2
Oggi h: 16:20 poco_nuvoloso Poco Nuvoloso 29 19 54 1011 10 E 20.3
Oggi h: 15:50 poco_nuvoloso Poco Nuvoloso 29 18 51 1011 10 E 18.5
Oggi h: 15:20 poco_nuvoloso Poco Nuvoloso 30 17 45 1011 10 E 14.8
Oggi h: 14:50 poco_nuvoloso Poco Nuvoloso 29 18 51 1012 10 E/SE 14.8
Oggi h: 14:20 nuvoloso Nuvoloso 29 17 48 1012 10 E 16.7
Oggi h: 13:50 nuvoloso Nuvoloso 29 16 45 1012 10 E 16.7
Oggi h: 13:20 nuvoloso Nuvoloso 29 17 48 1012 10 E 16.7
Oggi h: 12:50 poco_nuvoloso Poco Nuvoloso 30 16 42 1012 10 E 13
Oggi h: 12:20 poco_nuvoloso Poco Nuvoloso 29 16 45 1012 10 E 11.1
Oggi h: 11:50 poco_nuvoloso Poco Nuvoloso 29 16 45 1012 10 E/SE 7.4
Oggi h: 11:20 poco_nuvoloso Poco Nuvoloso 28 17 51 1013 10 N 3.7
Oggi h: 10:50 sereno Sereno 27 17 54 1012 10 S/SO 9.3
Oggi h: 10:20 sereno Sereno 27 17 54 1012 10 SO 9.3
Oggi h: 09:50 sereno Sereno 26 18 61 1012 10 O/SO 9.3
Oggi h: 09:20 poco_nuvoloso Poco Nuvoloso 25 19 69 1012 10 O/SO 13
Oggi h: 08:50 nuvoloso Nuvoloso 24 19 73 1012 10 SO 9.3
Oggi h: 08:20 nuvoloso Nuvoloso 23 19 78 1012 10 O/SO 11.1
Oggi h: 07:50 nuvoloso Nuvoloso 23 18 73 1012 10 O 7.4
Oggi h: 07:20 nuvoloso Nuvoloso 21 18 82 1012 10 N 5.5
Oggi h: 06:50 sereno Sereno 20 17 82 1012 10 O 7.4
Oggi h: 06:20 sereno Sereno 19 17 88 1012 10 O 9.3
Oggi h: 05:50 sereno Sereno 19 17 88 1011 10 O 11.1
Oggi h: 05:20 sereno Sereno 20 17 82 1011 10 O 13
Oggi h: 04:50 sereno Sereno 19 17 88 1011 10 O/NO 11.1
Oggi h: 04:20 sereno Sereno 19 17 88 1011 10 O 13
Oggi h: 03:50 sereno Sereno 19 17 88 1011 10 O/SO 11.1
Oggi h: 03:20 sereno Sereno 19 17 88 1011 10 O/SO 7.4
Oggi h: 02:50 sereno Sereno 19 18 93 1011 10 O 9.3
Oggi h: 02:20 sereno Sereno 20 18 88 1011 10 O 11.1
Oggi h: 01:50 sereno Sereno 20 18 88 1011 10 O/SO 7.4
Oggi h: 01:20 sereno Sereno 20 18 88 1011 10 SO 13
Oggi h: 00:50 sereno Sereno 20 18 88 1012 10 N 1.8
Oggi h: 00:20 sereno Sereno 21 18 82 1012 10 N 3.7
Ieri h: 23:50 sereno Sereno 21 19 88 1012 10 O 18.5
Ieri h: 23:20 sereno Sereno 21 19 88 1012 10 O/SO 14.8
Ieri h: 22:50 poco_nuvoloso Poco Nuvoloso 21 19 88 1012 10 O/SO 13
Ieri h: 22:20 nuvoloso Nuvoloso 21 19 88 1012 10 SO 11.1
Ieri h: 21:50 nuvoloso Nuvoloso 23 19 78 1012 10 N 5.5
Ieri h: 21:20 molto_nuvoloso Molto Nuvoloso 23 19 78 1012 10 NO 16.7
Ieri h: 20:50 coperto_pioggia Pioggia Debole 22 20 88 1012 10 O 13
Ieri h: 20:20 molto_nuvoloso Molto Nuvoloso 22 19 83 1012 10 O 13
Ieri h: 19:50 molto_nuvoloso Molto Nuvoloso 22 19 83 1011 10 NO 7.4
Ieri h: 19:20 nuvoloso Nuvoloso 22 20 88 1012 10 O 11.1
Ieri h: 18:50 nuvoloso Nuvoloso 22 20 88 1011 10 O 11.1
Ieri h: 18:20 molto_nuvoloso Molto Nuvoloso 22 19 83 1012 10 S/SO 7.4
Ieri h: 17:50 coperto_pioggia Pioggia 22 20 88 1012 8 N 7.4